Regional Weather Roundup
Issued by NWS Charleston, SC

Current Version | Previous Version | Text Only | Print | Product List | Glossary Off
Versions: 1 2 3 4 5 6 7 8 9 10 11 12 13 14 15 16 17 18 19 20 21 22 23 24 25 26 27 28 29 30 31 32 33 34 35 36 37 38 39 40 41 42 43 44 45 46 47 48 49 50
505 ASUS42 KCHS 310013 RWRCHS REGIONAL WEATHER ROUNDUP NATIONAL WEATHER SERVICE CHARLESTON SC 800 PM EDT MON MAY 30 2016 NOTE: "FAIR" INDICATES FEW OR NO CLOUDS BELOW 12,000 FEET WITH NO SIGNIFICANT WEATHER AND/OR OBSTRUCTIONS TO VISIBILITY. NOT ALL STATIONS ARE QUALITY CONTROLLED. USE DATA WITH CAUTION... ESPECIALLY DEWPOINT OBSERVATIONS. SCZ027-030-031-034>040-042>050-310100- ...SOUTHEAST SOUTH CAROLINA... CITY SKY/WX TMP DP RH WIND PRES REMARKS N CHARLESTON CLOUDY 73 70 90 NW8 29.87R 6HR MIN TEMP: 73; 6HR MAX TEMP: 77; 6HR PCP: 0.12; WATERFRONT PRK N/A 73 72 96 VRB3 29.85R MOUNT PLEASANT RAIN 73 72 94 NW7 29.87R JOHNS ISLAND DRIZZLE 73 73 100 W6 29.88R PINOPOLIS NOT AVBL MONCKS CORNER DRIZZLE 70 66 88 N3 29.88R SUMMERVILLE LGT RAIN 72 72 100 NW5 29.89R BEAUFORT MCAS CLOUDY 75 70 84 N5 29.90R 6HR MIN TEMP: 73; 6HR MAX TEMP: 83; 6HR PCP: 0.05; BEAUFORT ARPT LGT RAIN 75 70 83 N6 29.90R HILTON HEAD IS MOCLDY 75 72 88 CALM 29.91F WALTERBORO MOCLDY 73 73 100 N3 29.90R ALLENDALE MOCLDY 79 73 83 CALM 29.89R ...SOUTHERN MIDLANDS AND PEE DEE... CITY SKY/WX TMP DP RH WIND PRES REMARKS GEORGETOWN CLOUDY 72 68 88 E3 29.88R KINGSTREE CLOUDY 72 68 88 N3 29.89R ORANGEBURG CLOUDY 76 70 82 CALM 29.90R 6HR MIN TEMP: 73; 6HR MAX TEMP: 77; 6HR PCP: 0.12; BARNWELL MOCLDY 82 75 78 E8 29.90R AIKEN FAIR 81 63 54 NW6 29.94R MANNING DRIZZLE 70 70 100 CALM 29.90R COLUMBIA MOCLDY 80 70 71 E9 29.90R 6HR MIN TEMP: 80; 6HR MAX TEMP: 88; 6HR PCP: TRACE; SUMTER CLOUDY 74 71 91 NW6 29.88R 6HR MIN TEMP: 72; 6HR MAX TEMP: 77; 6HR PCP: 0.05; FLORENCE MOCLDY 74 71 91 NE7 29.90R 6HR MIN TEMP: 74; 6HR MAX TEMP: 82; 6HR PCP: 0.08; MYRTLE BEACH MOCLDY 75 64 69 SE7 29.90S N MYRTLE BEACH MOCLDY 76 69 79 S5 29.89R 6HR MIN TEMP: 76; 6HR MAX TEMP: 80; 6HR PCP: TRACE; $$ GAZ063-065-086>088-099>101-113>116-118-119-134>141-150-310100- ...SOUTHEAST GEORGIA... CITY SKY/WX TMP DP RH WIND PRES REMARKS SAVANNAH ARPT PTCLDY 85 64 49 NW8 29.90R 6HR MIN TEMP: 85; 6HR MAX TEMP: 88; HUNTER AAF CLEAR 84 71 65 W2 29.87R 6HR MIN TEMP: 84; 6HR MAX TEMP: 88; FORT STEWART CLEAR 86 64 47 NW1 29.88R 6HR MIN TEMP: 86; 6HR MAX TEMP: 91; STATESBORO CLEAR 83 71 66 NW3 29.90R SYLVANIA CLEAR 85 69 57 NW3 29.90R CLAXTON FAIR 81 73 78 CALM 29.90R ...CSRA...CENTRAL AND FAR SOUTHEAST GEORGIA... CITY SKY/WX TMP DP RH WIND PRES REMARKS THOMSON CLEAR 86 68 55 E5 29.94S AUGUSTA-BUSH CLEAR 84 64 50 N6 29.88S 6HR MIN TEMP: 84; 6HR MAX TEMP: 89; AUGUSTA-DANIEL CLEAR 87 63 44 N5 29.91R SWAINSBORO FAIR 86 64 48 CALM 29.91R VIDALIA CLEAR 86 61 42 NW5 29.91R EASTMAN FAIR 88 63 43 CALM 29.93R HAZLEHURST FAIR 90 59 35 CALM 29.90R ALMA CLEAR 88 61 40 N5 29.90R 6HR MIN TEMP: 88; 6HR MAX TEMP: 93; WAYCROSS CLEAR 87 63 44 CALM 29.90R JESUP FAIR 82 59 44 N3 29.90R BAXLEY FAIR 88 63 42 N3 29.90R BRUNSWICK CLEAR 91 72 52 SE6 29.91R HX 98 SAINT SIMONS CLEAR 81 73 76 VRB5 29.90R 6HR MIN TEMP: 81; 6HR MAX TEMP: 93; $$ SCZ027-028-034-036>038-045-046-048>050-GAZ119-141-310100- ...LAKE AND SUPPLEMENTAL COASTAL OBSERVATIONS... STATION/POSITION TIME TEMP WIND PRES WAVE SWELL AIR SEA DIR/SP/G HT/PER HT/PER/DIR (UTC) (F) (DEG/KT/KT) (MB) (FT/S) (FT/S/D) WINYAH BAY 2245 74 150/ 7 1010.0 LAKE MURRAY 2300 83 10/ 3/ 6 1011.5S ACE BASIN NERRS NOT AVBL FORT PULASKI 2300 78 76 N/A SAPELO ISLAND 2300 86 130/ 6 1012.0S $$ ANZ835-935-AMZ111-154-330-350-352-354-370-450-454-472-310100- ...C-MAN AND BUOY OBSERVATIONS... STATION/POSITION TIME TEMP WIND PRES WAVE SWELL AIR SEA DIR/SP/G HT/PER HT/PER/DIR (UTC) (F) (DEG/KT/KT) (MB) (FT/S) (FT/S/D) BUOY 41004 2350 76 77 230/ 12/ 16 1011.1R 4/ 8 3/ 8 BUOY 41008 2350 79 79 160/ 6/ 8 1012.5R 2/ 9 2/100/ 9 FOLLY BEACH CMAN 0000 72 270/ 3/ 4 1011.8R CAPERS NEARSHORE 2308 74 77 360/ 4/ 8 1011.1R FRIPP NEARSHORE 2308 78 76 360/ 6/ 10 1011.4R STATION/POSITION TIME TEMP WIND PRES WAVE SWELL AIR SEA DIR/SP/G HT/PER HT/PER/DIR (UTC) (F) (DEG/KT/KT) (MB) (FT/S) (FT/S/D) 5E ST. MARYS GA 0001 79 N/A 2/ 9 FRYING PAN BUOY 2300 77 78 190/ 6/ 8 1011.8R BUOY 41025 2350 74 81 220/ 14/ 16 1013.5R 6/ 7 5/170/ 7 CAPE LOOKOUT NC 2300 76 CALM / 1 1013.0R BUOY 41002 2350 76 76 170/ 10/ 12 1014.9R 5/ 8 5/ 90/ 8 BUOY 41010 2320 79 80 170/ 10/ 12 1014.2R ST AUGUSTINE FL 0000 81 82 220/ 16/ 20 1014.3R $$

USA.gov is the U.S. government's official web portal to all federal, state and local government web resources and services.